Stations météo

réclame
Mon MeteoGroup
Straubing, Allemagne (10788): Température de l'air & dewpoint: 12.11.2018 05:00:00 - 18.11.2018 05:00:00 (CET)Straubing, Allemagne (10788): Température de l'air 5cm & Température de l'air -5cm: 12.11.2018 05:00:00 - 18.11.2018 05:00:00 (CET)Straubing, Allemagne (10788): Température de l'air -20cm & Température de l'air -100cm: 12.11.2018 05:00:00 - 18.11.2018 05:00:00 (CET)Straubing, Allemagne (10788): Vitesse du vent & gusts: 12.11.2018 05:00:00 - 18.11.2018 05:00:00 (CET)Straubing, Allemagne (10788): Direction du vent: 12.11.2018 05:00:00 - 18.11.2018 05:00:00 (CET)Straubing, Allemagne (10788): reduced air pressure: 12.11.2018 05:00:00 - 18.11.2018 05:00:00 (CET)Straubing, Allemagne (10788): visibility: 12.11.2018 05:00:00 - 18.11.2018 05:00:00 (CET)Straubing, Allemagne (10788): Ensoleillement: 12.11.2018 05:00:00 - 18.11.2018 05:00:00 (CET)Straubing, Allemagne (10788): Quantités de précipitations: 12.11.2018 05:00:00 - 18.11.2018 05:00:00 (CET)
Date & Time tt [°C] td [°C] tt 5cm [°C] tt -5cm [°C] tt -20cm [°C] tt -100cm [°C] ff [km/h] ff [knt] fx [km/h] fx [knt] dd ppp [hPa] vv [km] sd [min] rr [mm]
18.11.2018 05:00:00 -0,9 -3,7 -4,8 -0,5 3,7 11,2 8 4 12 7 N 1028,4 22 0 0,0
18.11.2018 04:00:00 -0,6 -3,5 -4,0 -0,3 3,8 11,2 8 5 11 6 N 1028,7 21 0 0,0
18.11.2018 03:00:00 0,3 -2,8 -2,8 -0,1 3,9 11,2 9 5 11 6 N 1029,1 22 0 0,0
18.11.2018 02:00:00 -0,4 -2,6 -5,4 0,0 4,1 11,2 4 2 13 7 ENE 1029,6 24 0 0,0
18.11.2018 01:00:00 -0,7 -3,5 -4,4 0,2 4,2 11,3 9 5 12 7 NE 1030,0 21 0 0,0
18.11.2018 00:00:00 -0,6 -3,4 -4,7 0,4 4,3 11,3 3 2 12 7 NNW 1030,2 27 0 0,0
17.11.2018 23:00:00 -0,3 -3,9 -4,2 0,6 4,5 11,3 5 3 15 8 NNE 1030,5 29 0 0,0
17.11.2018 22:00:00 -1,6 -4,8 -3,8 0,8 4,6 11,3 10 6 13 7 ENE 1030,9 27 0 0,0
17.11.2018 21:00:00 1,0 -3,0 -2,6 1,1 4,8 11,3 11 6 16 8 SE 1030,2 32 0 0,0
17.11.2018 20:00:00 1,6 -3,6 -2,9 1,4 5,0 11,3 8 4 10 5 E 1030,5 32 0 0,0
17.11.2018 19:00:00 2,1 -3,6 -4,0 1,7 5,1 11,3 5 3 16 9 SE 1030,8 35 0 0,0
17.11.2018 18:00:00 3,0 -3,3 -1,9 2,1 5,2 11,3 8 4 33 18 E 1030,8 40 0 0,0
17.11.2018 17:00:00 5,1 -3,8 2,8 3,3 5,2 11,4 23 12 34 18 E 1030,1 49 14 0,0
17.11.2018 16:00:00 6,3 -2,2 4,5 4,7 5,0 11,4 19 10 30 16 E 1029,5 49 60 0,0
17.11.2018 15:00:00 7,3 -0,3 7,4 5,9 4,7 11,4 13 7 23 13 NNE 1029,2 30 60 0,0
17.11.2018 14:00:00 7,6 0,2 8,9 6,1 4,3 11,4 16 8 23 13 NNE 1029,0 24 60 0,0
17.11.2018 13:00:00 8,0 0,4 9,8 5,6 4,0 11,4 15 8 40 22 NNE 1029,2 24 60 0,0
17.11.2018 12:00:00 8,3 -1,0 9,7 4,1 3,8 11,4 29 15 38 20 E 1029,3 57 60 0,0
17.11.2018 11:00:00 7,2 -0,4 8,3 0,6 3,9 11,4 29 16 42 23 E 1030,1 51 60 0,0
17.11.2018 10:00:00 6,2 -0,3 6,5 0,2 3,9 11,4 21 11 29 15 E 1030,5 44 60 0,0
17.11.2018 09:00:00 4,1 -0,7 3,8 0,1 4,0 11,4 12 6 24 13 E 1030,7 47 60 0,0
17.11.2018 08:00:00 3,2 -2,3 -2,4 0,0 4,2 11,5 7 4 19 11 NE 1030,6 23 0 0,0
17.11.2018 07:00:00 2,8 -2,8 -2,0 0,1 4,3 11,5 10 5 16 8 ENE 1029,9 5 0 0,0
17.11.2018 06:00:00 3,5 -1,9 -1,6 0,3 4,4 11,5 9 5 26 14 ENE 1029,7 4,8 0 0,0
17.11.2018 05:00:00 1,3 -2,6 -2,7 0,3 4,5 11,5 14 7 23 12 E 1030,2 40 0 0,0
17.11.2018 04:00:00 1,1 -1,9 -2,3 0,4 4,7 11,5 12 7 15 8 E 1030,3 36 0 0,0
17.11.2018 03:00:00 2,9 -1,9 -2,1 0,5 4,8 11,5 8 4 15 8 NNE 1030,0 37 0 0,0
17.11.2018 02:00:00 1,7 -1,6 -4,6 0,7 5,0 11,5 3 2 7 4 N 1030,3 33 0 0,0
17.11.2018 01:00:00 0,8 -1,5 -5,6 0,9 5,2 11,5 5 3 6 3 NE 1030,3 25 0 0,0
17.11.2018 00:00:00 1,5 -1,4 -3,9 1,1 5,3 11,5 3 2 8 4 ENE 1030,6 32 0 0,0
16.11.2018 23:00:00 1,0 -1,9 -4,3 1,3 5,5 11,6 5 3 10 5 NNE 1030,8 26 0 0,0
16.11.2018 22:00:00 1,2 -1,3 -4,8 1,6 5,7 11,6 4 2 6 3 NE 1030,6 22 0 0,0
16.11.2018 21:00:00 2,0 -0,3 -3,3 1,8 5,9 11,6 0 0 8 4 N 1030,7 20 0 0,0
16.11.2018 20:00:00 3,0 -0,6 -2,3 2,0 6,1 11,6 5 3 9 5 NE 1030,5 30 0 0,0
16.11.2018 19:00:00 3,3 -0,4 -1,1 2,6 6,3 11,6 7 4 13 7 NNE 1030,5 29 0 0,0
16.11.2018 18:00:00 3,3 1,2 -1,5 3,5 6,4 11,6 8 4 14 8 NE 1030,2 14 0 0,0
16.11.2018 17:00:00 5,1 1,2 1,4 4,8 6,3 11,6 9 5 19 10 NE 1029,9 26 13 0,0
16.11.2018 16:00:00 7,7 2,1 4,7 6,4 6,1 11,6 5 3 12 6 ENE 1029,3 31 60 0,0
16.11.2018 15:00:00 8,5 1,8 8,7 7,5 5,7 11,6 8 4 12 7 NE 1029,2 29 60 0,0
16.11.2018 14:00:00 8,1 1,5 10,0 7,7 5,3 11,6 5 3 13 7 N 1029,8 12 60 0,0
16.11.2018 13:00:00 7,0 1,0 8,9 7,0 4,9 11,6 6 3 9 5 NE 1030,4 33 60 0,0
16.11.2018 12:00:00 5,4 0,2 7,8 4,8 4,8 11,6 4 2 8 5 N 1031,3 30 60 0,0
16.11.2018 11:00:00 3,4 0,2 5,8 1,3 4,8 11,6 4 2 8 4 N 1032,0 21 60 0,0
16.11.2018 10:00:00 1,2 -1,1 2,8 0,6 5,0 11,7 2 1 5 3 SSE 1032,2 13 60 0,0
16.11.2018 09:00:00 -1,4 -2,2 0,5 0,6 5,1 11,7 4 2 5 3 WSW 1032,4 5 60 0,0
16.11.2018 08:00:00 -2,9 -3,3 -4,8 0,6 5,3 11,7 3 2 7 4 SW 1032,5 4,2 1 0,0
16.11.2018 07:00:00 -3,9 -4,3 -5,9 0,9 5,4 11,7 5 3 6 3 WSW 1032,0 2,2 0 0,0
16.11.2018 06:00:00 -3,2 -3,2 -4,0 1,1 5,6 11,7 3 2 6 4 SW 1031,7 0,2 0 0,0
16.11.2018 05:00:00 -2,8 -3,1 -3,1 1,3 5,7 11,7 4 2 6 4 WSW 1031,7 0,4 0 0,0
16.11.2018 04:00:00 -2,6 -2,8 -3,1 1,4 5,9 11,7 4 2 6 3 W 1031,5 0,6 0 0,0
16.11.2018 03:00:00 -2,6 -2,7 -3,0 1,6 6,1 11,7 4 2 6 3 SW 1031,8 0,2 0 0,0
16.11.2018 02:00:00 -1,6 -1,7 -2,0 1,7 6,3 11,7 4 2 6 4 WNW 1031,7 0,4 0 0,0
16.11.2018 01:00:00 -2,0 -2,0 -2,3 1,8 6,5 11,7 2 1 8 4 SSW 1031,5 0,1 0 0,0
16.11.2018 00:00:00 -0,8 -0,8 -2,3 2,0 6,7 11,7 3 2 6 3 WSW 1031,4 0,7 0 0,0
15.11.2018 23:00:00 -0,1 -0,1 -1,5 2,2 7,0 11,7 0 0 5 3 N 1030,6 0,3 0 0,0
15.11.2018 22:00:00 -0,7 -1,4 -4,2 2,2 7,3 11,7 0 0 4 2 N 1030,7 0,4 0 0,0
15.11.2018 21:00:00 1,2 0,7 -0,5 2,8 7,5 11,7 3 1 6 3 SW 1030,1 8 0 0,0
15.11.2018 20:00:00 1,7 1,0 -1,6 3,4 7,8 11,7 3 1 4 2 S 1029,7 7 0 0,0
15.11.2018 19:00:00 2,4 1,5 -0,9 4,1 8,0 11,7 2 1 10 5 E 1029,7 10 0 0,0
15.11.2018 18:00:00 3,7 1,9 0,4 5,0 8,1 11,7 9 5 13 7 NNE 1029,1 16 0 0,0
15.11.2018 17:00:00 5,3 3,1 0,5 6,3 8,2 11,7 4 2 6 3 NE 1028,8 24 12 0,0
15.11.2018 16:00:00 6,6 2,5 5,5 7,8 8,1 11,7 4 2 8 5 ESE 1028,3 28 60 0,0
15.11.2018 15:00:00 6,9 2,5 7,7 8,8 7,9 11,8 6 3 11 6 NE 1028,2 32 60 0,0
15.11.2018 14:00:00 5,5 2,3 8,2 9,0 7,7 11,8 6 4 11 6 ENE 1028,7 22 53 0,0
15.11.2018 13:00:00 3,7 2,3 5,4 8,6 7,5 11,8 6 3 10 6 NE 1029,6 15 15 0,0
15.11.2018 12:00:00 2,9 2,2 5,1 7,4 7,5 11,8 5 3 10 5 E 1030,3 8 0 0,0
15.11.2018 11:00:00 2,4 2,1 4,3 6,7 7,4 11,8 5 3 8 5 E 1030,9 3,8 0 0,0
15.11.2018 10:00:00 2,0 1,9 3,5 5,8 7,5 11,8 5 3 9 5 E 1030,9 0,8 0 0,0
15.11.2018 09:00:00 1,9 1,9 3,1 5,3 7,5 11,8 6 3 10 6 E 1030,8 0,9 0 0,0
15.11.2018 08:00:00 2,2 2,2 2,8 5,3 7,6 11,8 6 3 11 6 E 1030,5 0,3 0 0,0
15.11.2018 07:00:00 2,4 2,4 2,8 5,5 7,7 11,8 6 3 14 7 E 1030,4 0,3 0 0,0
15.11.2018 06:00:00 3,2 3,2 3,5 5,7 7,8 11,8 9 5 14 8 SE 1030,1 0,8 0 0,0
15.11.2018 05:00:00 3,8 3,8 4,1 6,0 7,8 11,8 7 4 14 7 E 1029,9 0,9 0 0,0
15.11.2018 04:00:00 4,4 4,4 4,7 6,2 7,8 11,8 10 5 12 6 E 1029,8 2,9 0 0,0
15.11.2018 03:00:00 4,8 4,8 5,1 6,3 7,9 11,8 8 4 9 5 E 1030,0 0,3 0 0,0
15.11.2018 02:00:00 4,9 4,9 5,1 6,3 7,9 11,8 5 3 9 5 E 1030,2 0,1 0 0,0
15.11.2018 01:00:00 4,8 4,8 5,1 6,3 7,9 11,8 5 3 10 5 SE 1030,4 0,1 0 0,0
15.11.2018 00:00:00 4,7 4,7 4,9 6,3 8,0 11,8 8 4 11 6 SE 1030,6 0,7 0 0,0
14.11.2018 23:00:00 4,9 4,7 5,1 6,3 8,0 11,8 4 2 8 5 NE 1030,9 2,7 0 0,0
14.11.2018 22:00:00 5,0 5,0 5,1 6,2 8,1 11,8 4 2 6 3 NNE 1031,2 3,2 0 0,0
14.11.2018 21:00:00 4,5 4,4 4,8 6,0 8,2 11,8 3 1 5 3 WSW 1031,4 2,6 0 0,0
14.11.2018 20:00:00 4,3 4,3 4,6 5,7 8,4 11,8 4 2 10 5 W 1031,6 0,3 0 0,0
14.11.2018 19:00:00 4,6 4,6 4,0 5,2 8,6 11,8 7 4 11 6 SW 1031,4 1,2 0 0,0
14.11.2018 18:00:00 4,7 4,4 2,5 5,6 8,8 11,9 8 5 14 7 SW 1030,9 6 0 0,0
14.11.2018 17:00:00 4,5 4,0 1,5 6,7 8,9 11,9 8 4 10 6 SSW 1031,3 7 5 0,0
14.11.2018 16:00:00 6,5 4,6 4,9 8,3 8,8 11,9 3 1 8 4 S 1031,2 12 23 0,0
14.11.2018 15:00:00 7,2 5,1 7,8 9,8 8,7 11,9 6 4 11 6 E 1031,0 14 0 0,0
14.11.2018 14:00:00 7,2 4,9 8,8 9,7 8,6 11,9 9 5 14 8 E 1031,3 16 0 0,0
14.11.2018 13:00:00 7,5 5,8 8,7 9,5 8,4 11,9 5 3 13 7 ENE 1031,8 15 0 0,0
14.11.2018 12:00:00 7,1 5,2 8,9 9,1 8,3 11,9 9 5 17 9 ESE 1032,4 15 0 0,0
14.11.2018 11:00:00 7,4 5,6 8,2 8,5 8,2 11,9 11 6 19 10 ESE 1033,0 14 0 0,0
14.11.2018 10:00:00 7,6 5,8 8,2 8,1 8,1 11,9 10 5 13 7 ESE 1032,6 19 0 0,0
14.11.2018 09:00:00 7,5 6,3 7,8 7,6 8,1 11,9 4 2 8 4 ESE 1033,1 16 0 0,0
14.11.2018 08:00:00 6,8 6,6 6,8 7,1 8,1 11,9 5 3 8 4 S 1033,0 4,8 0 0,0
14.11.2018 07:00:00 6,7 6,3 6,6 7,1 8,1 11,9 7 4 8 4 S 1032,8 6 0 0,0
14.11.2018 06:00:00 6,6 6,5 6,6 7,0 8,1 11,9 6 4 8 4 S 1032,8 3,1 0 0,0
14.11.2018 05:00:00 6,7 6,5 6,6 7,0 8,1 11,9 3 2 6 3 W 1033,1 4,2 0 0,0
14.11.2018 04:00:00 6,7 6,5 6,6 7,0 8,1 11,9 2 1 5 3 W 1033,1 4,2 0 0,0
14.11.2018 03:00:00 6,7 6,6 6,6 6,8 8,1 11,9 5 3 9 5 W 1033,3 3,7 0 0,0
14.11.2018 02:00:00 6,6 6,6 6,6 6,6 8,1 11,9 3 2 8 4 W 1033,3 2,1 0 0,0
14.11.2018 01:00:00 6,3 6,3 6,3 6,3 8,2 11,9 3 1 6 4 NNW 1033,4 2,9 0 0,0
14.11.2018 00:00:00 6,8 6,8 6,4 5,8 8,3 11,9 6 3 13 7 WNW 1033,4 8 0 0,0
13.11.2018 23:00:00 4,2 4,2 3,8 5,3 8,5 11,9 4 2 9 5 SSW 1033,6 3,6 0 0,0
13.11.2018 22:00:00 3,2 3,2 2,9 5,4 8,7 11,9 5 3 6 4 SSE 1033,6 0,1 0 0,0
13.11.2018 21:00:00 4,1 4,1 2,9 5,8 8,9 11,9 5 3 8 4 S 1033,1 0,1 0 0,0
13.11.2018 20:00:00 4,4 4,4 3,0 6,5 9,0 12,0 5 3 10 5 NE 1032,8 0,1 0 0,0
13.11.2018 19:00:00 6,1 6,1 4,3 7,5 9,1 12,0 5 3 8 5 SSE 1032,1 0,2 0 0,0
13.11.2018 18:00:00 7,0 7,0 5,9 8,2 9,1 12,0 5 3 9 5 SSE 1031,7 1,6 0 0,1
13.11.2018 17:00:00 7,9 7,8 7,7 8,7 9,1 12,0 7 4 10 5 E 1030,8 5 0 0,0
13.11.2018 16:00:00 8,2 7,9 8,0 9,2 9,0 12,0 5 3 10 6 NE 1030,2 8 0 0,0
13.11.2018 15:00:00 8,7 8,2 8,6 9,6 8,9 12,0 6 3 11 6 ESE 1029,2 14 0 0,1
13.11.2018 14:00:00 8,5 7,7 8,7 9,7 8,8 12,0 8 4 11 6 SE 1028,3 13 0 0,0
13.11.2018 13:00:00 8,0 7,2 9,4 9,8 8,6 12,0 5 3 10 5 WSW 1028,5 12 0 0,1
13.11.2018 12:00:00 6,9 6,3 8,5 9,2 8,5 12,0 6 4 9 5 W 1028,8 13 0 0,0
13.11.2018 11:00:00 6,3 6,2 7,3 8,8 8,4 12,0 6 3 10 5 SW 1028,4 4,0 0 0,0
13.11.2018 10:00:00 6,2 6,2 7,4 8,0 8,4 12,0 7 4 10 5 SSW 1027,2 0,9 0 0,0
13.11.2018 09:00:00 5,9 5,9 6,5 7,4 8,4 12,0 8 4 14 7 ESE 1026,3 0,5 0 0,0
13.11.2018 08:00:00 5,9 5,9 6,3 7,2 8,5 12,0 3 2 6 4 WNW 1025,9 0,4 0 0,0
13.11.2018 07:00:00 5,8 5,8 6,1 7,1 8,5 12,0 6 3 12 7 SW 1025,2 0,5 0 0,0
13.11.2018 06:00:00 6,0 6,0 6,2 7,2 8,5 12,0 7 4 14 7 SE 1024,3 0,3 0 0,0
13.11.2018 05:00:00 6,1 6,1 6,3 7,2 8,6 12,0 12 7 16 9 ESE 1023,9 0,2 0 0,0
13.11.2018 04:00:00 6,1 6,1 6,3 7,3 8,6 12,0 10 5 16 8 ESE 1024,1 0,2 0 0,0
13.11.2018 03:00:00 6,2 6,2 6,4 7,3 8,6 12,0 11 6 17 9 ESE 1024,3 0,2 0 0,1
13.11.2018 02:00:00 6,2 6,2 6,3 7,4 8,7 12,0 9 5 16 8 SE 1024,6 0,2 0 0,0
13.11.2018 01:00:00 6,2 6,2 6,4 7,5 8,7 12,0 11 6 16 9 ESE 1024,6 0,3 0 0,0
13.11.2018 00:00:00 6,4 6,4 6,5 7,6 8,8 12,1 12 6 17 9 SE 1024,6 0,3 0 0,0
12.11.2018 23:00:00 6,6 6,6 6,7 7,7 8,8 12,1 10 5 17 9 ESE 1024,5 0,2 0 0,0
12.11.2018 22:00:00 6,8 6,8 6,9 7,8 8,8 12,1 11 6 15 8 ESE 1024,6 0,2 0 0,0
12.11.2018 21:00:00 6,9 6,9 7,1 8,0 8,8 12,1 11 6 15 8 SE 1024,2 0,3 0 0,0
12.11.2018 20:00:00 7,1 7,1 7,3 8,1 8,8 12,1 10 6 21 11 SE 1023,7 0,2 0 0,0
12.11.2018 19:00:00 7,5 7,5 7,5 8,2 8,8 12,1 9 5 15 8 E 1023,1 2,1 0 0,0
12.11.2018 18:00:00 7,7 7,5 7,6 8,4 8,8 12,1 7 4 11 6 E 1022,7 4,0 0 0,0
12.11.2018 17:00:00 7,9 7,5 7,7 8,6 8,8 12,1 9 5 16 9 ESE 1022,0 6 0 0,0
12.11.2018 16:00:00 7,8 7,5 7,9 9,0 8,7 12,1 13 7 18 10 E 1021,6 5 0 0,0
12.11.2018 15:00:00 8,1 7,7 8,4 9,2 8,5 12,1 17 9 25 13 ESE 1020,9 7 0 0,0
12.11.2018 14:00:00 8,1 7,9 8,9 9,3 8,4 12,1 10 5 17 9 ESE 1021,0 4,5 0 0,0
12.11.2018 13:00:00 7,6 7,5 8,6 9,0 8,2 12,1 11 6 18 10 ESE 1021,2 2,5 0 0,0
12.11.2018 12:00:00 7,6 7,6 8,7 8,7 8,1 12,1 13 7 21 11 E 1021,4 3,6 0 0,0
12.11.2018 11:00:00 7,5 7,5 8,2 8,1 8,0 12,1 18 10 24 13 SE 1021,0 0,7 0 0,0
12.11.2018 10:00:00 6,9 6,9 7,6 7,4 7,9 12,1 13 7 19 10 ESE 1021,7 0,3 0 0,0
12.11.2018 09:00:00 6,4 6,4 6,7 6,8 7,9 12,1 11 6 17 9 E 1021,9 0,2 0 0,0
12.11.2018 08:00:00 5,8 5,8 6,0 6,4 7,9 12,1 13 7 17 9 E 1021,5 0,2 0 0,0
12.11.2018 07:00:00 5,9 5,9 5,9 6,2 7,9 12,1 11 6 15 8 E 1021,2 0,1 0 0,0
12.11.2018 06:00:00 6,0 6,0 6,0 5,8 7,9 12,1 10 5 15 8 ESE 1020,9 0,2 0 0,0
12.11.2018 05:00:00 4,5 4,5 4,6 5,3 8,0 12,1 9 5 12 7 E 1020,9 0,1 0 0,0

tt = Température de l'air
td = dewpoint
tt 5cm = Température de l'air 5cm
tt -5cm = Température de l'air -5cm
tt -20cm = Température de l'air -20cm
tt -100cm = Température de l'air -100cm
ff = Vitesse du vent
fx = gusts
dd = Direction du vent
ppp = reduced air pressure
vv = visibility
sd = Ensoleillement
rr = Quantités de précipitations

stations d'obs. à proximité